Regional Weather Roundup
Issued by NWS

Home | Current Version | Previous Version | Graphics & Text | Print | Product List | Glossary On
Versions: 1 2 3 4 5 6 7 8 9 10 11 12 13 14 15 16 17 18 19 20 21 22 23 24 25 26 27 28 29 30 31 32 33 34 35 36 37 38 39 40 41 42 43 44 45 46 47 48 49 50
000
ASUS43 KMPX 281201
RWRMN
WEATHER ROUNDUP FOR MINNESOTA
NATIONAL WEATHER SERVICE TWIN CITIES/CHANHASSEN MN
600 AM CST FRI NOV 28 2014


NOTE: "FAIR" INDICATES FEW OR NO CLOUDS BELOW 12,000 FEET WITH NO
SIGNIFICANT WEATHER AND/OR OBSTRUCTIONS TO VISIBILITY. N/A MEANS
CURRENT SKY AND/OR WEATHER CONDITIONS ARE NOT AVAILABLE.

MNZ060>063-068>070-281300-
   Twin Cities Metro

CITY           SKY/WX    TMP DP  RH WIND       PRES   REMARKS
TWIN CITIES    CLOUDY    12   7  80 SE7       30.05F WCI   1
6HR MIN TEMP:   6; 6HR MAX TEMP:  12; 6HR PCP:  0.07;

ST PAUL        CLOUDY    13   8  81 SE9       30.08S WCI   1
CRYSTAL        CLOUDY    14   8  77 VRB7      30.04F WCI   4
BLAINE         FLURRIES  14  10  85 SE6       30.04S WCI   5
LAKEVILLE      CLOUDY    10   7  85 SE6       30.03S WCI   1
EDEN PRAIRIE   CLOUDY    13   7  77 SE10      30.03F WCI   0
6HR MIN TEMP:   6; 6HR MAX TEMP:  13; 6HR PCP:  0.03;

SOUTH ST PAUL  CLOUDY    13   8  79 SE5       30.06S WCI   6
LAKE ELMO      CLOUDY    14  10  85 S6        30.06S WCI   5
$$
MNZ001>005-007-008-013>017-022>024-027-028-281300-
   Northwest Minnesota

CITY           SKY/WX    TMP DP  RH WIND       PRES   REMARKS
BEMIDJI        CLOUDY     8   3  82 SE10      29.99F WCI  -7
HALLOCK        FLURRIES  10   7  85 E8        30.03S WCI  -1
ROSEAU         MOCLDY     9   1  72 E5        30.03S WCI   0
WARROAD        PTCLDY     7   1  78 E6        30.04S WCI  -3
THIEF RVR FALL CLOUDY    10   3  72 E9        30.00F WCI  -2
CROOKSTON      CLOUDY    12   7  79 SE8       30.01F WCI   1
FOSSTON        CLOUDY     9   3  78 SE6       29.99F WCI  -1
DETROIT LAKES  FLURRIES  10   7  85 SE8       29.95F WCI  -1
MOORHEAD       MOCLDY    12   9  85 S7        30.00R WCI   2
PARK RAPIDS    LGT SNOW   8   4  83 SE7       29.97F FOG     WCI  -3
MAHNOMEN       CLOUDY    10   4  78 SE5       29.99R WCI   1
$$
MNZ006-009>011-018-025>026-281300-
   North Central Minnesota

CITY           SKY/WX    TMP DP  RH WIND       PRES   REMARKS
BAUDETTE       PTCLDY     5  -1  76 E7        30.02F WCI  -7
FLAG ISLAND    PTCLDY     3  -2  78 E5        30.05S WCI  -6
INTL FALLS     CLOUDY     5  -2  72 E5        30.05F WCI  -4
6HR MIN TEMP:   1; 6HR MAX TEMP:   5;

WASKISH        FLURRIES   9   5  85 CALM      30.03S
BIG FORK       FLURRIES   9   3  78 SE3       30.02F
LONGVILLE      LGT SNOW   9   5  85 E3        30.01F
GRAND RAPIDS   CLOUDY     7   1  78 SE6       30.00F WCI  -3
CRANE LAKE     CLOUDY     5   0  78 CALM      30.09F
ORR            FLURRIES   7   0  72 CALM      30.01F
COOK           FLURRIES   7   1  78 CALM      30.03F
WALKER         FLURRIES   8   3  82 SE5       30.00F WCI  -1
$$
MNZ012-019>021-037-281300-
   Northeast Minnesota

CITY           SKY/WX    TMP DP  RH WIND       PRES   REMARKS
DULUTH         LGT SNOW   7   2  80 SE6       30.04F WCI  -3
6HR MIN TEMP:   6; 6HR MAX TEMP:   7; 6HR PCP:  0.01;

ELY            CLOUDY     7  -2  66 SE5       30.05F WCI  -2
HIBBING        CLOUDY     8   1  73 SE7       30.03F WCI  -3
EVELETH        FLURRIES   9   1  72 E3        30.05F
DULUTH HARBOR  FLURRIES  10   3  72 CALM      30.14F
TWO HARBORS    LGT SNOW  12   7  79 CALM      30.07F
SILVER BAY     FLURRIES  12   3  67 CALM      30.07F
GRAND MARAIS     N/A     14   7  73 CALM      30.15F
G MARAIS ARPRT LGT SNOW   7   0  72 SW3       30.04F
$$
MNZ029>031-032-039>041-046>048-054>057-064-281300-
   West Central Minnesota

CITY           SKY/WX    TMP DP  RH WIND       PRES   REMARKS
FERGUS FALLS   PTCLDY    10   1  67 SE7       30.00S WCI   0
WHEATON        PTCLDY     5   1  85 E7        29.98R WCI  -7
MORRIS         PTCLDY     9   3  78 SE13      29.93F WCI  -7
ALEXANDRIA     CLOUDY     9   4  80 SE13      29.95F WCI  -7
ELBOW LAKE     FAIR      10   4  77 SE10      29.93F WCI  -4
WADENA         LGT SNOW   7   3  85 E6        29.97F WCI  -3
GLENWOOD       FAIR       9   5  85 SE13      29.94F WCI  -7
APPLETON       PTCLDY     9   3  78 E10       29.94F WCI  -6
BENSON         PTCLDY     9   3  78 SE10      29.93F WCI  -6
ORTONVILLE     FAIR       7   1  78 MISG      29.93R
MADISON        PTCLDY    12   7  79 SE8       29.93F WCI   1
WILLMAR        FAIR       9   3  78 E13       29.96F WCI  -7
$$
MNZ033>034-036-042>043-049>051-058-059-281300-
   Central Minnesota

CITY           SKY/WX    TMP DP  RH WIND       PRES   REMARKS
ST CLOUD       CLOUDY    11   5  77 E5        30.02F WCI   3
6HR MIN TEMP:   7; 6HR MAX TEMP:  11; 6HR PCP:  0.09;

SAUK CENTRE    CLOUDY     9   5  82 E8        29.97F WCI  -3
PAYNESVILLE    CLOUDY     8   4  85 NE8       29.98F WCI  -5
AITKIN         LGT SNOW  10   5  79 SE3       30.01F
PINE RIVER     FLURRIES   9   5  85 SE6       30.04S WCI  -1
BRAINERD       CLOUDY     8   4  83 SE7       30.02S WCI  -3
STAPLES        LGT SNOW   7   3  85 SE5       29.99F WCI  -2
LONG PRAIRIE   FLURRIES   9   5  85 E8        29.98F WCI  -4
LITTLE FALLS   LGT SNOW   9   5  85 SE5       30.02F WCI   0
LITCHFIELD     PTCLDY    10   7  85 SE9       29.99F WCI  -2
BUFFALO        CLOUDY    12   7  78 E7        30.03F WCI   2
MAPLE LAKE     CLOUDY    13   9  83 SE3       30.02F
$$
MNZ037-044-045-052-053-281300-
   East Central Minnesota

CITY           SKY/WX    TMP DP  RH WIND       PRES   REMARKS
PRINCETON      LGT SNOW  10   7  85 CALM      30.04S
MORA             N/A    N/A N/A N/A MISG        N/A
CAMBRIDGE      LGT SNOW  12   5  73 E3        30.04F
RUSH CITY      CLOUDY    10   7  85 CALM      30.06F
MOOSE LAKE     LGT SNOW  10   5  79 E3        30.04F
HINCKLEY       LGT SNOW  10   9  92 CALM      30.07S
CLOQUET        LGT SNOW   7   3  85 SE5       30.04F WCI  -2
MCGREGOR       CLOUDY    10   7  85 SE7       30.04F WCI   0
$$
MNZ071>073-080-081-089-090-097-098-281300-
   Southwest Minnesota

CITY           SKY/WX    TMP DP  RH WIND       PRES   REMARKS
MONTEVIDEO     CLEAR      9   5  85 S10       29.96S WCI  -6
GRANITE FALLS  PTCLDY    10   4  80 E8        29.96S WCI  -3
CANBY          PTCLDY     9   6  89 SE5       29.91F WCI   0
MARSHALL       CLEAR     10   3  72 SE8       29.90F WCI  -1
REDWOOD FALLS  PTCLDY    10   4  76 E9        29.95F WCI  -3
OLIVIA         PTCLDY    10   5  79 E9        29.96F WCI  -2
PIPESTONE      MOCLDY    16  12  86 SE7       29.85  WCI   6
WINDOM         CLEAR     10   9  92 SE7       29.91F WCI   0
WORTHINGTON    PTCLDY    12  10  92 S8        29.89F WCI   1
JACKSON        PTCLDY    16  12  86 S10       29.91S WCI   3
TRACY          CLEAR     12   9  85 SE5       29.91S WCI   4
SLAYTON        CLEAR     11  10  92 SE8       29.88F WCI   0
$$
MNZ065>067-074>077-082>085-091>093-281300-
   South Central Minnesota

CITY           SKY/WX    TMP DP  RH WIND       PRES   REMARKS
MANKATO        PTCLDY    10   3  72 SE8       29.99S WCI  -1
NEW ULM        MOCLDY    10   7  85 SE7       29.97F WCI   0
ST JAMES       PTCLDY    14   9  79 SE8       29.97F WCI   3
FAIRMONT       PTCLDY    14   9  79 S12       29.95S WCI   0
GLENCOE        MOCLDY    11   8  85 E7        30.00F WCI   1
FARIBAULT      PTCLDY    14   7  73 SE8       30.00F WCI   3
OWATONNA       MOCLDY    14   7  73 SE20      29.98F WCI  -3
WASECA         PTCLDY    12   3  67 SE12      30.00F WCI  -2
ALBERT LEA     FAIR      14   7  73 SE20      29.99F WCI  -3
$$
MNZ078>079-086>088-094>096-281300-
   Southeast Minnesota

CITY           SKY/WX    TMP DP  RH WIND       PRES   REMARKS
ROCHESTER      CLOUDY    14   8  77 SE18      30.01F WCI  -3
6HR MIN TEMP:   8; 6HR MAX TEMP:  14; 6HR PCP:  0.05;

RED WING       CLOUDY    14   9  79 SE8       30.05F WCI   3
STANTON        MOCLDY    14   8  76 SE5       30.02F WCI   6
DODGE CENTER   MOCLDY    14   9  79 S14       29.99F WCI  -1
WINONA         CLOUDY    16  12  86 SE13      30.11F WCI   2
AUSTIN         MOCLDY    14   7  73 SE10G16   30.01F WCI   1
PRESTON        CLOUDY    13   8  81 SE12      30.04F WCI  -1
$$
ABBREVIATIONS USED IN REMARKS
   TC - TEMPERATURES IN CELSIUS
  WCI - WIND CHILL INDEX
   HX - HEAT INDEX
  VSB - VISIBILITY
$$


USA.gov is the U.S. government's official web portal to all federal, state and local government web resources and services.